Regional Weather Roundup
Issued by NWS Cleveland, OH

Home | Current Version | Previous Version | Text Only | Print | Product List | Glossary Off
Versions: 1 2 3 4 5 6 7 8 9 10 11 12 13 14 15 16 17 18 19 20 21 22 23 24 25 26 27 28 29 30 31 32 33 34 35 36 37 38 39 40 41 42 43 44 45 46 47 48 49 50

000
ASUS41 KCLE 291500
RWRCLE
OHIO REGIONAL WEATHER ROUNDUP
NATIONAL WEATHER SERVICE WILMINGTON, OH
1000 AM EST THU JAN 29 2015

NOTE: "FAIR" INDICATES FEW OR NO CLOUDS BELOW 12,000 FEET WITH NO
SIGNIFICANT WEATHER AND/OR OBSTRUCTIONS TO VISIBILITY.

OHZ001>008-015>018-024>027-034-035-043-044-291600-
   NORTHWEST OHIO

CITY           SKY/WX    TMP DP  RH WIND       PRES   REMARKS
DEFIANCE       CLOUDY    37  29  72 S10       29.75F
FINDLAY        CLOUDY    38  30  73 S22       29.77F
TOLEDO EXPRESS CLOUDY    35  28  75 S6        29.76F
TOLEDO EXEC    CLOUDY    35  27  72 S12       29.77F WCI  27
LIMA           CLOUDY    40  29  64 S17G25    29.77F
$$

OHZ009>014-019>023-028>033-038-089-291600-
   NORTHEAST OHIO

CITY           SKY/WX    TMP DP  RH WIND       PRES   REMARKS
CLE-HOPKINS    DRIZZLE   34  22  61 S16G25    29.85S WCI  24
CLE-LAKEFRONT  CLOUDY    35  20  54 SE23G30   29.81F WCI  23
CUY CO. ARPT   CLOUDY    34  19  55 S17G29    29.83F WCI  23
LORAIN-ELYRIA  CLOUDY    33  24  69 S16G24    29.82F WCI  23
ASHTABULA      CLOUDY    30  10  43 S17G28    29.85F WCI  18
AKRON-CANTON   FRZ RAIN  32  22  66 S20       29.87F WCI  20
WOOSTER        NOT AVBL
MANSFIELD      FRZ DRZL  33  26  75 S20G30    29.83F WCI  21
YOUNGSTOWN     FRZ RAIN  30  13  49 SE13G21   29.88F WCI  20
$$

OHZ042-051>053-060>062-070>072-077>081-291600-
  SOUTHWEST OHIO

CITY           SKY/WX    TMP DP  RH WIND       PRES   REMARKS
CINC-COVINGTON PTSUNNY   45  33  63 SW17G26   29.85
CINC-LUNKEN    CLOUDY    42  35  76 S9        29.88F
HAMILTON       PTSUNNY   41  35  79 VRB5      29.85F
DAYTON         NOT AVBL
WRIGHT-PAT AFB NOT AVBL
DAYTON GENERAL CLOUDY    37  31  78 S16       29.82F
WILMINGTON     CLOUDY    36  30  79 S17       29.84F
$$

OHZ036-037-039>041-045>050-054>059-063>069-073>076-082>088-291600-
  CENTRAL AND SOUTHEAST OHIO

CITY           SKY/WX    TMP DP  RH WIND       PRES   REMARKS
COLUMBUS       LGT RAIN  34  27  75 S10G17    29.88F WCI  26
OSU AIRPORT    FRZ RAIN  33  28  81 S10       29.86F WCI  25
BOLTON FIELD   LGT RAIN  32  28  86 S12       29.87F WCI  23
RICKENBACK AFB NOT AVBL
NEWARK         LGT RAIN  34  26  72 S8        29.89F WCI  27
MARION         CLOUDY    35  28  75 S23G30    29.82F WCI  23
LANCASTER      RAIN      36  28  73 S9        29.90S
ZANESVILLE     LGT RAIN  33  24  69 S12       29.92F WCI  24
NEW PHILLY     LGT RAIN  33  19  56 SE6       29.92F WCI  28
$$


USA.gov is the U.S. government's official web portal to all federal, state and local government web resources and services.